Location: Newark
(37.8333°N, 119.5000°W)
Time: 00:08:42
(UTC+00:00)

SR - Visible Passes

Search period start: 22 August 2019 00:00
Search period end: 01 September 2019 00:00
Orbit: 578 x 878 km, 66.7° (Epoch: 20 August)

Date Brightness Start Highest point End Pass type
(mag) Time Alt. Az. Time Alt. Az. Time Alt. Az.
22 Aug ? 03:42:20 10° NNE 03:43:22 10° NE 03:44:26 10° NE visible
22 Aug ? 05:21:00 10° NNW 05:26:04 57° NE 05:26:04 57° NE visible
22 Aug ? 07:04:13 10° WNW 07:05:28 14° WNW 07:05:28 14° WNW visible
23 Aug ? 04:31:45 10° N 04:36:42 32° NE 04:37:47 29° ENE visible
23 Aug ? 06:13:37 10° NW 06:17:12 32° WNW 06:17:12 32° WNW visible
24 Aug ? 03:42:56 10° N 03:46:41 18° NE 03:49:34 13° E visible
24 Aug ? 05:23:41 10° NNW 05:28:58 74° WNW 05:28:58 74° WNW visible
25 Aug ? 04:34:08 10° NNW 04:39:39 56° ENE 04:40:49 47° E visible
25 Aug ? 06:17:13 10° WNW 06:20:14 20° W 06:20:14 20° W visible
26 Aug ? 03:44:55 10° N 03:49:48 30° NE 03:52:42 20° E visible
26 Aug ? 05:26:41 10° NW 05:32:00 42° WSW 05:32:07 42° WSW visible
27 Aug ? 02:56:09 10° N 02:59:46 17° NE 03:03:29 10° E visible
27 Aug ? 04:36:48 10° NNW 04:42:28 82° WSW 04:44:05 50° SSE visible
27 Aug ? 06:22:56 10° W 06:23:31 10° W 06:23:31 10° W visible
28 Aug ? 03:47:17 10° NNW 03:52:47 53° ENE 03:56:08 24° SE visible
28 Aug ? 05:30:12 10° WNW 05:34:33 22° WSW 05:35:34 21° WSW visible
29 Aug ? 02:58:05 10° N 03:02:55 29° NE 03:07:56 10° ESE visible
29 Aug ? 04:39:46 10° NW 04:45:09 44° WSW 04:47:41 28° SSW visible
30 Aug ? 03:49:54 10° NNW 03:55:36 87° WSW 03:59:54 19° SSE visible
30 Aug ? 05:35:17 10° W 05:36:57 11° WSW 05:38:37 10° WSW visible
31 Aug ? 03:00:24 10° NNW 03:05:53 50° ENE 03:11:35 10° SE visible
31 Aug ? 04:43:12 10° NW 04:47:42 24° WSW 04:51:41 12° SSW visible
